Wind_Speed
24 24 23 22 20 19 18 17 15 14 13 11 9 8 10 12 15 16 17 13 20 8 8 13 10 11 10 9 6 3 10 17 22 20 15 7 10 6 2 8 5 2 3 4 1
24 23 22 20 18 15 14 15 15 12 10 10 8 8 9 10 11 15 14 23 20 15 9 18 14 16 7 9 7 12 15 22 14 13 13 11 10 9 7 8 8 6 1 4 6
25 23 20 18 16 15 12 10 11 8 6 8 6 6 7 8 10 10 13 24 22 19 13 13 17 13 10 8 11 14 17 12 8 10 7 11 10 5 7 8 7 8 3 3 5
25 21 19 15 15 13 12 8 8 6 5 6 6 6 3 5 9 6 3 23 19 20 17 17 18 10 13 13 13 9 15 8 6 5 6 12 8 8 9 3 6 7 3 0 5
25 21 19 17 13 12 11 8 6 5 5 6 7 5 2 8 11 6 4 3 28 24 24 18 22 14 18 15 12 13 7 8 5 7 6 6 8 8 9 6 5 5 5 5 3
25 19 17 17 12 10 9 8 6 5 6 7 5 5 8 12 8 15 12 4 24 28 26 22 18 14 13 12 14 12 5 13 9 7 5 7 8 4 7 5 8 10 12 11 9
26 23 16 14 14 12 7 8 7 6 7 6 5 5 10 13 5 4 10 5 22 29 22 21 16 15 10 7 7 7 14 7 10 9 8 6 12 13 14 15 14 14 12 11 11
27 24 18 11 11 10 6 7 8 8 7 6 4 4 6 13 23 10 3 5 19 25 24 15 23 12 8 6 10 11 6 10 11 15 6 6 13 4 4 9 13 12 12 11 14
28 25 16 9 4 4 5 7 10 11 10 4 3 5 6 5 11 9 7 6 26 22 22 16 19 12 7 14 9 14 11 17 5 8 9 17 9 7 6 5 9 10 10 9 10
29 23 11 2 1 1 3 7 2 3 7 5 3 4 8 10 12 13 13 12 23 19 14 14 7 12 13 15 15 17 16 12 14 5 9 9 13 6 8 8 11 12 13 12 11
31 19 9 8 3 3 3 3 2 3 4 3 1 4 8 10 15 12 13 14 16 18 10 15 8 16 21 18 3 10 16 9 8 4 6 11 12 12 13 14 15 15 15 14 12
30 19 15 11 9 7 6 3 2 3 2 1 5 8 15 9 7 4 5 5 16 21 15 9 13 17 14 11 9 14 13 10 5 4 5 5 11 14 15 13 11 11 12 12 8
22 18 13 11 9 9 8 4 3 3 1 5 1 5 5 7 5 3 5 2 18 18 20 10 12 13 14 12 12 9 11 8 3 5 1 5 9 7 2 6 4 4 2 3 5
18 14 13 5 5 4 5 5 2 2 1 3 2 3 0 3 5 5 4 2 4 9 10 7 5 18 17 16 13 9 4 7 5 4 4 3 2 5 5 8 9 10 9 7 6
21 14 13 14 2 4 5 5 5 2 3 2 5 6 4 6 6 7 2 1 7 13 5 4 6 17 18 18 14 3 7 7 4 2 2 4 4 6 11 10 10 8 6 5 3
14 14 8 6 7 3 4 6 3 3 8 5 3 2 6 2 3 6 6 6 7 9 14 5 3 3 3 7 7 15 10 7 3 0 3 3 4 6 8 10 10 6 3 5 4
13 6 10 5 0 3 7 2 1 6 2 5 4 7 6 5 4 4 4 3 5 5 3 0 4 3 4 8 6 5 10 3 4 3 2 2 3 2 8 6 7 7 0 5 5
9 6 5 5 3 4 2 2 9 5 8 2 6 9 4 2 3 4 4 5 5 8 4 3 4 3 1 0 5 9 5 3 4 4 3 2 6 2 6 5 1 6 2 4 4
9 2 3 6 7 3 2 6 2 1 2 4 4 5 2 2 4 4 3 4 4 0 2 4 4 2 4 7 4 4 4 2 4 1 2 4 3 5 2 7 9 7 4 4 5
4 3 1 5 4 2 3 5 2 2 3 2 3 2 3 3 2 2 3 1 3 2 2 3 6 2 3 1 8 2 8 2 1 5 5 4 3 4 10 10 10 3 6 6 6
3 1 1 8 1 2 4 3 2 2 3 3 2 2 3 3 2 2 3 2 1 2 2 5 3 3 3 4 6 4 3 1 0 2 2 2 3 2 14 9 5 4 5 6 6
3 1 6 3 2 2 2 1 1 2 1 1 2 2 1 2 2 2 3 2 3 4 4 2 4 4 1 2 4 3 3 5 3 4 1 2 2 4 5 4 3 8 7 7 6
3 2 4 4 2 3 4 4 3 0 1 1 1 0 1 2 1 2 2 2 4 2 5 6 3 5 2 1 1 5 7 4 3 1 5 3 4 3 4 2 4 6 7 5 5
3 1 2 3 2 2 2 1 1 1 1 1 2 2 4 3 2 4 4 1 1 1 4 3 2 1 3 3 4 5 10 11 7 4 5 6 1 7 5 6 7 7 6 6 6
3 2 1 1 3 2 1 1 2 2 2 3 2 3 4 4 4 4 3 3 2 4 2 1 2 1 2 2 4 3 6 13 11 10 6 1 7 7 7 8 8 7 7 6 6
2 2 2 0 2 3 2 2 1 1 1 3 3 6 5 3 3 6 7 5 3 4 3 1 3 1 2 3 7 8 11 12 16 16 16 15 18 16 14 3 5 8 5 5 6
5 3 2 1 1 2 1 0 0 3 2 3 5 4 3 2 3 1 4 5 6 8 5 5 5 2 1 1 4 8 16 19 11 9 14 12 10 6 8 6 7 6 2 3 3
Wind_Direction
319 317 314 312 311 313 307 303 289 273 256 248 269 314 301 299 311 298 230 211 216 221 180 185 195 183 182 184 201 191 222 223 216 223 221 192 211 182 149 222 201 182 312 358 125
314 311 310 318 313 308 309 304 290 284 261 244 266 291 309 316 297 272 234 208 212 211 187 185 185 169 178 190 188 203 219 223 228 225 220 186 208 185 183 189 206 185 114 62 140
316 314 312 312 316 309 302 305 305 303 288 276 261 285 313 311 266 244 232 207 212 206 212 191 184 178 177 184 185 210 226 213 218 219 202 190 196 189 206 205 203 186 91 63 153
323 317 313 307 307 309 301 307 302 300 287 282 272 282 309 287 217 118 174 206 201 199 194 188 187 187 186 193 188 202 225 229 201 187 173 179 179 202 219 234 150 134 33 173 190
327 322 313 307 297 304 304 297 290 286 292 289 279 264 250 226 229 172 121 227 203 195 195 191 189 195 193 196 184 216 195 198 199 174 163 157 185 219 234 213 224 255 255 233 220
322 316 310 306 294 291 294 276 276 284 290 268 250 225 229 241 232 229 227 319 188 192 195 197 197 188 201 190 196 194 187 198 200 203 173 200 215 214 224 246 243 244 253 249 252
322 314 301 299 289 280 281 291 282 284 280 265 262 222 236 235 215 178 222 241 185 189 191 194 182 180 168 168 185 164 203 191 217 222 223 198 231 236 248 252 255 250 251 259 256
335 327 312 280 293 277 267 288 291 289 277 259 268 226 258 247 237 257 186 274 191 190 193 180 182 180 178 157 167 186 178 197 221 217 204 207 249 156 220 234 252 259 258 255 255
341 332 311 286 296 293 269 291 297 281 258 235 207 213 251 161 185 221 216 269 175 183 194 169 174 175 159 168 161 189 203 212 183 209 218 215 256 257 219 233 258 259 259 257 264
347 344 337 257 52 345 309 312 344 113 140 151 208 204 247 193 153 189 225 225 164 167 181 187 185 177 181 183 198 189 198 208 215 174 220 218 239 234 221 254 267 271 269 264 254
354 354 23 102 66 53 35 116 184 131 203 231 176 282 77 133 146 183 197 183 152 166 171 186 188 194 186 197 267 173 192 187 213 149 218 235 247 249 253 258 259 260 266 269 269
16 46 87 74 65 64 54 64 33 12 254 259 295 284 277 252 139 149 207 165 163 171 162 172 212 192 170 173 176 179 181 191 135 160 233 232 265 258 251 256 272 277 270 271 281
27 51 77 63 66 58 71 37 316 353 301 79 260 265 267 187 109 95 51 4 168 165 177 172 173 168 174 176 167 181 182 165 165 162 179 294 256 221 115 119 104 72 89 107 110
23 27 30 48 45 32 53 348 11 13 169 21 352 47 76 186 78 97 67 123 60 137 161 170 132 175 181 185 184 177 145 137 144 203 229 317 236 142 152 119 110 108 92 87 83
17 33 39 50 78 46 340 338 326 256 67 35 342 308 52 52 109 30 319 22 148 124 190 75 171 180 185 189 192 130 138 121 126 124 303 184 242 110 157 137 140 121 80 69 43
3 26 37 70 56 37 13 332 298 276 46 46 46 2 83 113 103 169 136 79 55 61 75 36 19 45 105 69 192 135 117 86 89 148 230 167 256 161 177 152 151 165 78 37 31
334 346 18 54 103 346 334 226 228 39 288 23 80 75 81 55 55 57 62 100 128 118 99 218 42 14 55 87 69 227 166 152 197 193 252 126 215 6 153 156 150 173 0 15 3
325 272 300 329 312 334 291 236 56 27 70 177 113 101 80 88 39 118 138 81 85 108 117 101 113 122 105 116 157 175 218 230 197 187 148 162 228 131 162 154 189 211 302 328 343
338 267 223 290 309 308 281 49 64 339 49 129 112 94 101 45 122 147 72 89 146 300 99 129 93 78 156 144 171 169 210 36 96 77 251 177 226 268 158 159 177 191 311 344 354
345 317 230 325 299 236 51 90 58 221 317 338 17 9 135 120 148 140 135 94 123 310 311 110 114 65 156 152 62 252 134 151 225 185 220 177 241 161 168 161 169 189 340 345 345
351 270 305 352 194 62 64 33 4 354 352 1 75 89 77 123 97 111 87 115 146 96 83 123 91 124 153 202 174 144 187 81 121 291 263 194 136 139 163 168 179 316 348 342 337
341 20 344 0 76 80 94 246 315 325 326 53 83 82 101 105 124 126 123 69 162 156 121 64 103 141 133 38 328 268 243 218 237 181 267 326 119 144 160 203 248 334 343 344 346
335 300 338 339 86 104 150 164 211 26 33 74 112 327 159 146 147 103 123 37 177 169 160 171 131 122 142 257 212 231 204 210 98 51 207 210 125 140 172 243 339 323 335 342 342
304 272 14 54 21 83 122 117 253 214 266 144 130 146 149 137 33 146 137 73 186 74 97 111 125 251 190 96 129 195 203 200 196 200 178 224 61 176 215 317 339 346 343 348 4
1 61 72 17 62 45 256 155 237 201 214 212 162 223 174 151 149 156 152 121 103 152 80 115 125 140 230 160 182 218 206 200 210 217 217 169 231 258 287 306 319 324 342 354 359
11 6 358 160 295 272 154 184 252 321 262 187 222 171 186 172 214 178 165 188 167 161 163 81 126 141 239 199 224 247 235 220 222 232 242 258 277 274 273 279 301 325 337 345 351
1 328 289 94 266 235 138 344 123 332 195 268 205 170 184 197 205 193 160 154 164 163 157 162 146 165 242 189 277 260 234 216 211 211 218 220 233 256 275 291 317 311 335 346 338
Height
802 799 795 792 788 786 784 782 781 780 780 782 783 782 782 782 779 780 778 781 785 785 787 791 794 795 797 794 795 793 791 788 788 793 789 791 793 791 792 790 790 789 789 794 796
797 794 791 788 785 782 781 779 778 777 777 778 780 780 780 779 778 776 776 779 781 784 786 787 790 792 792 792 793 789 788 779 776 781 786 789 788 789 793 793 791 791 792 796 797
793 790 787 785 782 779 776 775 776 775 775 776 777 778 778 777 773 766 769 772 778 782 784 787 789 790 792 793 790 787 783 778 788 785 785 786 789 789 790 795 787 790 793 794 797
789 786 783 780 778 775 774 772 773 774 773 774 775 776 775 776 767 761 764 769 775 780 782 785 787 789 788 791 787 792 784 783 787 789 789 789 785 789 789 786 788 790 794 794 795
786 783 780 777 775 773 772 771 771 772 772 771 773 773 774 772 761 762 763 766 771 776 777 779 781 785 785 787 791 790 789 787 786 790 790 791 791 789 790 787 790 793 794 793 793
781 777 774 773 771 769 769 769 769 770 770 771 772 772 773 769 758 759 762 763 763 771 775 777 777 781 784 785 787 786 789 786 789 791 792 795 793 794 786 786 789 791 791 790 791
776 773 769 768 767 766 766 767 767 767 768 768 769 768 767 759 759 758 761 762 763 768 772 775 777 781 779 789 784 787 793 791 792 790 791 793 797 794 786 783 786 785 786 789 789
772 768 764 763 763 763 763 764 765 765 766 766 766 767 760 754 756 759 758 758 762 768 773 776 778 781 780 783 787 790 792 800 785 788 791 793 788 787 783 784 784 784 784 786 786
768 762 760 759 760 761 762 762 762 762 763 765 766 766 755 751 753 752 757 760 762 769 775 776 778 778 782 783 791 786 786 789 790 786 786 789 785 780 782 786 784 782 781 782 782
764 757 755 756 759 760 761 760 760 759 761 764 765 767 754 746 750 753 758 759 761 770 777 779 778 778 776 776 779 780 784 788 787 789 791 789 786 784 782 783 783 779 777 775 777
762 754 753 756 759 759 760 760 762 761 761 755 755 755 745 747 749 756 755 754 761 768 771 777 776 774 770 771 772 774 784 787 786 792 791 787 787 784 780 778 777 775 772 771 772
763 757 757 759 759 760 760 760 762 765 759 758 758 758 754 749 746 752 754 749 756 762 767 779 776 767 769 777 779 778 782 785 793 793 791 786 787 778 774 774 775 776 774 772 772
770 765 763 762 762 761 763 764 763 765 757 759 760 757 751 745 745 755 756 758 757 763 765 771 770 768 774 778 780 782 782 788 786 793 793 791 777 775 782 779 783 782 780 778 776
772 769 766 764 764 765 765 764 764 766 758 762 755 753 750 745 754 760 760 764 765 765 766 772 768 770 774 776 774 784 785 787 792 790 784 793 771 772 777 783 783 781 780 779 778
775 770 767 764 767 767 770 765 764 765 728 767 758 755 751 751 755 759 761 761 765 770 773 776 773 771 773 773 774 781 786 791 795 793 794 792 786 773 776 780 783 781 782 781 781
775 772 769 768 768 769 767 766 766 752 740 761 759 758 753 758 758 759 760 764 768 772 772 781 781 782 782 791 779 790 791 797 799 796 796 789 791 771 774 772 779 781 781 780 779
774 771 768 767 767 765 765 765 749 742 770 764 761 757 757 759 760 759 763 765 768 776 781 791 793 790 788 793 795 789 785 797 797 798 781 802 798 765 774 774 773 777 779 777 778
771 770 768 766 765 763 763 756 743 760 755 759 756 754 761 763 768 767 767 765 763 763 772 770 786 792 797 797 798 790 783 776 777 781 777 805 783 765 773 775 779 778 777 777 776
768 767 767 765 764 763 758 751 764 769 755 755 755 757 760 758 757 759 761 762 764 761 763 770 787 787 791 791 794 800 793 793 794 806 789 771 776 774 775 776 776 776 777 774 773
767 766 765 764 762 762 752 764 767 768 760 756 753 755 756 760 756 753 757 765 766 766 765 773 785 790 791 790 792 786 790 792 797 792 775 767 771 759 774 772 773 774 773 771 771
767 762 763 761 762 755 769 769 764 761 760 757 758 757 758 758 760 759 762 768 765 768 765 767 771 793 789 787 784 793 789 793 787 790 771 762 755 758 761 764 769 769 770 770 769
768 760 762 760 757 762 769 770 769 762 760 758 758 759 758 761 761 761 761 763 765 764 766 773 776 788 789 793 793 788 782 780 774 792 795 784 761 765 764 767 769 766 765 766 769
770 766 761 760 755 757 763 763 764 760 759 758 759 759 762 760 761 763 766 769 768 766 767 770 779 792 799 795 793 790 786 787 790 791 793 771 757 766 767 765 763 766 765 766 770
774 761 762 763 768 758 759 760 759 761 759 759 759 760 760 761 762 764 766 770 771 769 771 769 778 777 769 777 779 791 785 786 785 789 777 770 764 762 762 760 761 762 765 766 767
777 779 778 766 765 768 768 765 760 758 760 759 759 757 756 760 762 763 766 769 772 771 771 769 783 791 780 781 785 781 780 784 792 776 775 764 767 757 758 759 760 762 762 765 767
780 781 778 775 778 771 768 761 760 758 759 756 757 756 755 754 754 759 761 764 764 772 771 776 787 792 787 785 785 785 778 776 777 775 773 770 766 756 753 757 758 759 764 766 768
788 786 784 776 773 768 764 765 761 763 758 758 755 754 755 755 755 756 757 758 760 765 771 773 788 786 775 780 778 771 764 765 765 767 767 771 757 753 756 757 759 760 765 767 771